Aktuell
News
Messwerte
Diagramme
Archiv
Vorhersage
Regen
Wettergefahren

Astro & Geo
Gesundheit
Pegel
Gästebuch
Kontakt
Impressum
Datenschutz
App

Stark bewölkt bei 21.8 °C – Luftdruck: 1015.0 hPa – Wind: O 3.2 km/h
Messwerte von 02:27 Uhr; Warnsymbol: Datenbasis DWD; Wetterzustand powered by
Übersicht
Heute
Gestern
Vor 1 Jahr
Info
Gestern – Der Tag im Rückblick
 
Messwerte von Sonntag, 09.08.2020
Symbol
Zeitpunkt
Wetter-
zustand
Zeitpunkt
Temperatur
gefühlt
Zeitpunkt
Luftfeuchte
Taupunkt
Zeitpunkt
Luftdruck
Zeitpunkt
Wind
Zeitpunkt
Windböen
Max 15 Min.
Wind-
richtung
Zeitpunkt
Regen
Summe 1 h
Regenrate
Max 15 Min.
UV-Index
Max 15 Min.
Pegel Köln
Zeitpunkt
Warnlage
Zeitpunkt
00:15 Leicht bewölkt3 27.3 °C
27.3 °C
41 %
12.8 °C
1016.4 hPa 3.2 km/h
1 Bft
13.0 km/h
3 Bft
NO -
0.0 mm/h
0.0 248 cm
00:30 Leicht bewölkt3 27.2 °C
27.2 °C
41 %
12.7 °C
1016.4 hPa 3.2 km/h
1 Bft
11.2 km/h
2 Bft
NO -
0.0 mm/h
0.0 247 cm
00:45 Leicht bewölkt3 27.1 °C
27.1 °C
41 %
12.6 °C
1016.5 hPa 0.0 km/h
0 Bft
4.7 km/h
1 Bft
NO -
0.0 mm/h
0.0 247 cm
01:00 Leicht bewölkt3 26.6 °C
26.6 °C
43 %
12.9 °C
1016.7 hPa 1.4 km/h
1 Bft
4.7 km/h
1 Bft
SSO 0.00 mm
0.0 mm/h
0.0 247 cm
01:15 Leicht bewölkt3 26.5 °C
26.5 °C
44 %
13.1 °C
1016.6 hPa 1.4 km/h
1 Bft
3.2 km/h
1 Bft
SSO -
0.0 mm/h
0.0 247 cm
01:30 Leicht bewölkt3 26.0 °C
26.0 °C
45 %
13.0 °C
1016.5 hPa 1.4 km/h
1 Bft
3.2 km/h
1 Bft
SW -
0.0 mm/h
0.0 247 cm
01:45 Leicht bewölkt3 25.4 °C
25.4 °C
47 %
13.2 °C
1016.4 hPa 1.4 km/h
1 Bft
4.7 km/h
1 Bft
W -
0.0 mm/h
0.0 247 cm
02:00 Leicht bewölkt3 24.9 °C
24.9 °C
48 %
13.1 °C
1016.2 hPa 3.2 km/h
1 Bft
4.7 km/h
1 Bft
NW 0.00 mm
0.0 mm/h
0.0 247 cm
02:15 Leicht bewölkt3 24.7 °C
24.7 °C
50 %
13.5 °C
1016.2 hPa 0.0 km/h
0 Bft
4.7 km/h
1 Bft
NW -
0.0 mm/h
0.0 247 cm
02:30 Leicht bewölkt3 24.6 °C
24.6 °C
49 %
13.1 °C
1016.1 hPa 0.0 km/h
0 Bft
3.2 km/h
1 Bft
NW -
0.0 mm/h
0.0 247 cm
02:45 Leicht bewölkt3 24.4 °C
24.4 °C
50 %
13.2 °C
1016.1 hPa 1.4 km/h
1 Bft
3.2 km/h
1 Bft
NW -
0.0 mm/h
0.0 247 cm
03:00 Leicht bewölkt3 24.3 °C
24.3 °C
51 %
13.4 °C
1016.0 hPa 1.4 km/h
1 Bft
3.2 km/h
1 Bft
NW 0.00 mm
0.0 mm/h
0.0 245 cm
03:15 Leicht bewölkt3 24.2 °C
24.2 °C
51 %
13.3 °C
1016.1 hPa 0.0 km/h
0 Bft
0.0 km/h
0 Bft
NW -
0.0 mm/h
0.0 244 cm
03:30 Leicht bewölkt3 24.1 °C
24.1 °C
52 %
13.5 °C
1016.1 hPa 1.4 km/h
1 Bft
3.2 km/h
1 Bft
NW -
0.0 mm/h
0.0 244 cm
03:45 Wolkig3 23.9 °C
23.9 °C
53 %
13.6 °C
1016.0 hPa 0.0 km/h
0 Bft
3.2 km/h
1 Bft
NW -
0.0 mm/h
0.0 244 cm
04:00 Wolkig3 23.8 °C
23.8 °C
54 %
13.8 °C
1015.9 hPa 0.0 km/h
0 Bft
1.4 km/h
1 Bft
NW 0.00 mm
0.0 mm/h
0.0 244 cm
04:15 Wolkig3 23.7 °C
23.7 °C
55 %
14.0 °C
1016.1 hPa 0.0 km/h
0 Bft
3.2 km/h
1 Bft
NW -
0.0 mm/h
0.0 244 cm
04:30 Wolkig3 23.7 °C
23.7 °C
56 %
14.3 °C
1016.1 hPa 1.4 km/h
1 Bft
3.2 km/h
1 Bft
SO -
0.0 mm/h
0.0 244 cm
04:45 Wolkig3 23.9 °C
23.9 °C
55 %
14.2 °C
1016.2 hPa 1.4 km/h
1 Bft
4.7 km/h
1 Bft
SO -
0.0 mm/h
0.0 243 cm
05:00 Stark bewölkt3 23.6 °C
23.6 °C
55 %
13.9 °C
1016.2 hPa 0.0 km/h
0 Bft
3.2 km/h
1 Bft
SO 0.00 mm
0.0 mm/h
0.0 243 cm
05:15 Stark bewölkt3 23.3 °C
23.3 °C
57 %
14.2 °C
1016.1 hPa 0.0 km/h
0 Bft
3.2 km/h
1 Bft
SO -
0.0 mm/h
0.0 242 cm
05:30 Stark bewölkt3 23.4 °C
23.4 °C
57 %
14.3 °C
1016.1 hPa 0.0 km/h
0 Bft
0.0 km/h
0 Bft
SO -
0.0 mm/h
0.0 242 cm
05:45 Bedeckt2 23.4 °C
23.4 °C
59 %
14.8 °C
1016.2 hPa 1.4 km/h
1 Bft
4.7 km/h
1 Bft
OSO -
0.0 mm/h
0.0 243 cm
06:00 Stark bewölkt3 23.3 °C
23.3 °C
60 %
15.0 °C
1016.2 hPa 4.7 km/h
1 Bft
9.7 km/h
2 Bft
SSO 0.00 mm
0.0 mm/h
0.0 242 cm
06:15 Stark bewölkt3 23.2 °C
23.2 °C
60 %
14.9 °C
1016.3 hPa 1.4 km/h
1 Bft
13.0 km/h
3 Bft
SO -
0.0 mm/h
0.0 243 cm
06:30 Stark bewölkt3 23.2 °C
23.2 °C
61 %
15.2 °C
1016.2 hPa 3.2 km/h
1 Bft
7.9 km/h
2 Bft
OSO -
0.0 mm/h
0.0 241 cm
06:45 Stark bewölkt3 23.0 °C
23.0 °C
61 %
15.0 °C
1016.3 hPa 3.2 km/h
1 Bft
9.7 km/h
2 Bft
SO -
0.0 mm/h
0.0 241 cm
07:00 Stark bewölkt3 22.9 °C
22.9 °C
62 %
15.1 °C
1016.4 hPa 3.2 km/h
1 Bft
6.5 km/h
2 Bft
OSO 0.00 mm
0.0 mm/h
0.0 241 cm
07:15 Bedeckt2 22.9 °C
22.9 °C
62 %
15.1 °C
1016.5 hPa 1.4 km/h
1 Bft
6.5 km/h
2 Bft
O -
0.0 mm/h
0.0 240 cm
07:30 Stark bewölkt3 23.0 °C
23.0 °C
62 %
15.2 °C
1016.5 hPa 3.2 km/h
1 Bft
11.2 km/h
2 Bft
OSO -
0.0 mm/h
0.0 240 cm
07:45 Bedeckt2 23.1 °C
23.1 °C
61 %
15.1 °C
1016.5 hPa 1.4 km/h
1 Bft
7.9 km/h
2 Bft
SO -
0.0 mm/h
0.0 239 cm
08:00 Bedeckt2 23.2 °C
23.2 °C
61 %
15.2 °C
1016.5 hPa 1.4 km/h
1 Bft
9.7 km/h
2 Bft
SO 0.00 mm
0.0 mm/h
0.0 239 cm
08:15 Bedeckt2 23.4 °C
23.4 °C
61 %
15.4 °C
1016.5 hPa 1.4 km/h
1 Bft
4.7 km/h
1 Bft
SO -
0.0 mm/h
0.0 239 cm
08:30 Bedeckt2 23.7 °C
23.7 °C
61 %
15.6 °C
1016.7 hPa 0.0 km/h
0 Bft
4.7 km/h
1 Bft
SO -
0.0 mm/h
0.0 240 cm
08:45 Bedeckt2 24.2 °C
24.2 °C
60 %
15.7 °C
1016.5 hPa 1.4 km/h
1 Bft
4.7 km/h
1 Bft
OSO -
0.0 mm/h
1.0 239 cm
09:00 Bedeckt2 24.7 °C
24.7 °C
56 %
15.3 °C
1016.5 hPa 3.2 km/h
1 Bft
7.9 km/h
2 Bft
SO 0.00 mm
0.0 mm/h
1.3 239 cm
09:15 Bedeckt2 25.3 °C
25.3 °C
55 %
15.6 °C
1016.5 hPa 3.2 km/h
1 Bft
9.7 km/h
2 Bft
SO -
0.0 mm/h
1.3 239 cm
09:30 Leichter Regen4 25.2 °C
25.2 °C
55 %
15.5 °C
1016.6 hPa 3.2 km/h
1 Bft
11.2 km/h
2 Bft
S -
0.0 mm/h
1.3 239 cm
09:45 Bedeckt2 25.5 °C
25.5 °C
54 %
15.5 °C
1016.6 hPa 1.4 km/h
1 Bft
7.9 km/h
2 Bft
SSO -
0.0 mm/h
1.4 239 cm
10:00 Bedeckt2 25.6 °C
25.6 °C
55 %
15.8 °C
1016.5 hPa 1.4 km/h
1 Bft
4.7 km/h
1 Bft
OSO 0.00 mm
0.0 mm/h
1.2 239 cm
10:15 Bedeckt2 26.0 °C
26.0 °C
54 %
15.8 °C
1016.5 hPa 1.4 km/h
1 Bft
4.7 km/h
1 Bft
SO -
0.0 mm/h
1.5 239 cm
10:30 Bedeckt2 26.5 °C
26.5 °C
52 %
15.7 °C
1016.4 hPa 0.0 km/h
0 Bft
3.2 km/h
1 Bft
SO -
0.0 mm/h
1.6 238 cm
10:45 Bedeckt2 26.3 °C
26.3 °C
52 %
15.6 °C
1016.5 hPa 1.4 km/h
1 Bft
4.7 km/h
1 Bft
SSO -
0.0 mm/h
1.6 239 cm
11:00 Bedeckt2 27.0 °C
27.5 °C
51 %
15.8 °C
1016.4 hPa 1.4 km/h
1 Bft
3.2 km/h
1 Bft
OSO 0.00 mm
0.0 mm/h
2.2 239 cm
11:15 Bedeckt2 27.1 °C
27.4 °C
48 %
15.1 °C
1016.4 hPa 1.4 km/h
1 Bft
3.2 km/h
1 Bft
SO -
0.0 mm/h
2.4 238 cm
11:30 Bedeckt2 27.2 °C
27.5 °C
48 %
15.2 °C
1016.3 hPa 3.2 km/h
1 Bft
3.2 km/h
1 Bft
S -
0.0 mm/h
2.9 238 cm
11:45 Bedeckt2 27.8 °C
28.0 °C
47 %
15.4 °C
1016.2 hPa 3.2 km/h
1 Bft
7.9 km/h
2 Bft
NW -
0.0 mm/h
3.3 238 cm
12:00 Bedeckt2 28.0 °C
28.0 °C
45 %
14.9 °C
1016.2 hPa 4.7 km/h
1 Bft
6.5 km/h
2 Bft
WSW 0.00 mm
0.0 mm/h
2.9 238 cm
12:15 Leichter Regen4 28.3 °C
28.4 °C
46 %
15.5 °C
1016.1 hPa 3.2 km/h
1 Bft
7.9 km/h
2 Bft
NNW -
0.0 mm/h
2.8 237 cm
12:30 Bedeckt2 28.9 °C
28.9 °C
44 %
15.4 °C
1016.0 hPa 3.2 km/h
1 Bft
9.7 km/h
2 Bft
NW -
0.0 mm/h
3.1 238 cm
12:45 Wolkig1 29.5 °C
29.5 °C
42 %
15.2 °C
1015.9 hPa 4.7 km/h
1 Bft
16.2 km/h
3 Bft
WNW -
0.0 mm/h
4.4 237 cm
13:00 Wolkig1 30.9 °C
30.9 °C
38 %
14.8 °C
1015.6 hPa 6.5 km/h
2 Bft
14.4 km/h
3 Bft
NNW 0.00 mm
0.0 mm/h
5.6 238 cm
13:15 Wolkig3 31.4 °C
31.4 °C
35 %
14.0 °C
1015.5 hPa 6.5 km/h
2 Bft
16.2 km/h
3 Bft
W -
0.0 mm/h
5.7 238 cm
13:30 Wolkig3 32.2 °C
32.2 °C
37 %
15.6 °C
1015.3 hPa 4.7 km/h
1 Bft
14.4 km/h
3 Bft
NNO -
0.0 mm/h
5.7 238 cm
13:45 Leicht bewölkt2 32.2 °C
32.2 °C
37 %
15.6 °C
1015.2 hPa 3.2 km/h
1 Bft
17.6 km/h
3 Bft
NW -
0.0 mm/h
5.6 237 cm
14:00 Wolkig2 33.9 °C
33.9 °C
35 %
16.1 °C
1015.1 hPa 4.7 km/h
1 Bft
16.2 km/h
3 Bft
ONO 0.00 mm
0.0 mm/h
5.6 237 cm
14:15 Wolkig2 33.0 °C
33.0 °C
37 %
16.2 °C
1015.0 hPa 4.7 km/h
1 Bft
11.2 km/h
2 Bft
SSW -
0.0 mm/h
5.6 237 cm
14:30 Wolkig2 34.6 °C
34.6 °C
33 %
15.8 °C
1014.9 hPa 4.7 km/h
1 Bft
11.2 km/h
2 Bft
NNO -
0.0 mm/h
5.4 237 cm
14:45 Wolkig2 33.8 °C
33.8 °C
33 %
15.2 °C
1014.9 hPa 7.9 km/h
2 Bft
17.6 km/h
3 Bft
WSW -
0.0 mm/h
5.4 237 cm
15:00 Wolkig2 33.5 °C
33.5 °C
34 %
15.4 °C
1014.8 hPa 9.7 km/h
2 Bft
17.6 km/h
3 Bft
NNW 0.00 mm
0.0 mm/h
5.0 236 cm
15:15 Wolkig3 33.1 °C
33.1 °C
33 %
14.5 °C
1014.9 hPa 11.2 km/h
2 Bft
20.9 km/h
4 Bft
NW -
0.0 mm/h
4.9 236 cm
15:30 Wolkig3 32.1 °C
32.1 °C
36 %
15.0 °C
1015.1 hPa 11.2 km/h
2 Bft
22.7 km/h
4 Bft
NW -
0.0 mm/h
4.1 236 cm
15:45 Wolkig3 31.5 °C
31.5 °C
38 %
15.4 °C
1015.3 hPa 13.0 km/h
3 Bft
22.7 km/h
4 Bft
WSW -
0.0 mm/h
2.9 236 cm
16:00 Wolkig3 30.8 °C
31.7 °C
47 %
18.1 °C
1015.3 hPa 13.0 km/h
3 Bft
22.7 km/h
4 Bft
WNW 0.00 mm
0.0 mm/h
3.3 236 cm
16:15 Wolkig3 29.7 °C
30.6 °C
50 %
18.1 °C
1015.0 hPa 9.7 km/h
2 Bft
22.7 km/h
4 Bft
NW -
0.0 mm/h
2.4 236 cm
16:30 Wolkig3 30.0 °C
30.6 °C
47 %
17.4 °C
1015.0 hPa 7.9 km/h
2 Bft
20.9 km/h
4 Bft
WNW -
0.0 mm/h
1.9 236 cm
16:45 Wolkig3 30.0 °C
30.3 °C
45 %
16.6 °C
1014.8 hPa 6.5 km/h
2 Bft
19.4 km/h
3 Bft
WNW -
0.0 mm/h
1.9 236 cm
17:00 Wolkig3 30.8 °C
30.9 °C
42 %
16.3 °C
1014.9 hPa 4.7 km/h
1 Bft
11.2 km/h
2 Bft
W 0.00 mm
0.0 mm/h
2.1 235 cm
17:15 Wolkig3 30.7 °C
30.7 °C
41 %
15.8 °C
1014.8 hPa 6.5 km/h
2 Bft
14.4 km/h
3 Bft
WNW -
0.0 mm/h
1.9 235 cm
17:30 Wolkig3 30.7 °C
30.7 °C
41 %
15.8 °C
1014.7 hPa 4.7 km/h
1 Bft
13.0 km/h
3 Bft
WNW -
0.0 mm/h
1.5 235 cm
17:45 Wolkig3 31.7 °C
31.9 °C
40 %
16.3 °C
1014.7 hPa 3.2 km/h
1 Bft
7.9 km/h
2 Bft
NO -
0.0 mm/h
1.4 235 cm
18:00 Wolkig3 33.7 °C
33.7 °C
35 %
16.0 °C
1014.5 hPa 1.4 km/h
1 Bft
7.9 km/h
2 Bft
NO 0.00 mm
0.0 mm/h
1.5 235 cm
18:15 Wolkig3 32.0 °C
32.0 °C
38 %
15.7 °C
1014.5 hPa 6.5 km/h
2 Bft
17.6 km/h
3 Bft
OSO -
0.0 mm/h
1.8 235 cm
18:30 Wolkig3 30.4 °C
30.4 °C
40 %
15.2 °C
1014.4 hPa 9.7 km/h
2 Bft
20.9 km/h
4 Bft
SO -
0.0 mm/h
1.1 235 cm
18:45 Wolkig3 29.8 °C
29.8 °C
42 %
15.5 °C
1014.3 hPa 7.9 km/h
2 Bft
19.4 km/h
3 Bft
SO -
0.0 mm/h
0.9 235 cm
19:00 Wolkig3 29.5 °C
29.6 °C
44 %
15.8 °C
1014.3 hPa 6.5 km/h
2 Bft
19.4 km/h
3 Bft
OSO 0.00 mm
0.0 mm/h
0.6 234 cm
19:15 Wolkig3 28.9 °C
29.1 °C
46 %
16.0 °C
1014.8 hPa 6.5 km/h
2 Bft
19.4 km/h
3 Bft
SSO -
0.0 mm/h
0.0 234 cm
19:30 Wolkig3 28.7 °C
29.0 °C
47 %
16.1 °C
1015.1 hPa 4.7 km/h
1 Bft
14.4 km/h
3 Bft
SSW -
0.0 mm/h
0.0 234 cm
19:45 Leichter Regen2 28.5 °C
28.8 °C
48 %
16.2 °C
1015.0 hPa 3.2 km/h
1 Bft
11.2 km/h
2 Bft
S -
0.0 mm/h
0.0 234 cm
20:00 Leichter Regen4 27.8 °C
28.1 °C
49 %
15.9 °C
1014.9 hPa 4.7 km/h
1 Bft
16.2 km/h
3 Bft
SSW 0.00 mm
0.0 mm/h
0.0 234 cm
20:15 Leichter Regen4 27.2 °C
27.8 °C
53 %
16.6 °C
1014.7 hPa 4.7 km/h
1 Bft
14.4 km/h
3 Bft
SO -
0.0 mm/h
0.0 234 cm
20:30 Leichter Regen4 26.6 °C
26.6 °C
58 %
17.5 °C
1015.0 hPa 6.5 km/h
2 Bft
17.6 km/h
3 Bft
WSW -
0.0 mm/h
0.0 233 cm
20:45 Leichter Regen4 26.0 °C
26.0 °C
60 %
17.5 °C
1015.1 hPa 3.2 km/h
1 Bft
9.7 km/h
2 Bft
SO -
0.0 mm/h
0.0 233 cm
21:00 Leichter Regen1 24.0 °C
24.0 °C
69 %
17.8 °C
1015.2 hPa 4.7 km/h
1 Bft
11.2 km/h
2 Bft
SSW 0.78 mm
3.0 mm/h
0.0 233 cm
21:15 Leichter Regen1 22.7 °C
22.7 °C
77 %
18.3 °C
1015.3 hPa 1.4 km/h
1 Bft
7.9 km/h
2 Bft
SSO -
4.6 mm/h
0.0 233 cm
21:30 Leichter Regen1 23.0 °C
23.0 °C
79 %
19.0 °C
1015.1 hPa 3.2 km/h
1 Bft
9.7 km/h
2 Bft
SO -
3.2 mm/h
0.0 233 cm
21:45 Gewitter2 22.9 °C
22.9 °C
80 %
19.1 °C
1014.9 hPa 3.2 km/h
1 Bft
7.9 km/h
2 Bft
SO -
1.2 mm/h
0.0 233 cm
22:00 Leichter Regen4 22.8 °C
22.8 °C
82 %
19.5 °C
1015.0 hPa 4.7 km/h
1 Bft
9.7 km/h
2 Bft
O 1.58 mm
1.0 mm/h
0.0 233 cm
22:15 Leichter Regen1 22.6 °C
22.6 °C
84 %
19.7 °C
1015.1 hPa 3.2 km/h
1 Bft
11.2 km/h
2 Bft
OSO -
0.0 mm/h
0.0 233 cm
22:30 Leichter Regen4 22.9 °C
22.9 °C
80 %
19.1 °C
1014.9 hPa 4.7 km/h
1 Bft
11.2 km/h
2 Bft
O -
0.0 mm/h
0.0 232 cm
22:45 Bedeckt2 22.3 °C
22.3 °C
82 %
19.0 °C
1014.8 hPa 6.5 km/h
2 Bft
19.4 km/h
3 Bft
O -
0.0 mm/h
0.0 232 cm
23:00 Bedeckt2 22.2 °C
22.2 °C
80 %
18.5 °C
1014.5 hPa 4.7 km/h
1 Bft
11.2 km/h
2 Bft
O 0.25 mm
0.0 mm/h
0.0 232 cm
23:15 Bedeckt2 22.3 °C
22.3 °C
79 %
18.4 °C
1014.2 hPa 3.2 km/h
1 Bft
11.2 km/h
2 Bft
SO -
0.0 mm/h
0.0 231 cm
23:30 Bedeckt2 22.3 °C
22.3 °C
77 %
17.9 °C
1014.1 hPa 4.7 km/h
1 Bft
14.4 km/h
3 Bft
SO -
0.0 mm/h
0.0 231 cm
23:45 Stark bewölkt3 22.4 °C
22.4 °C
76 %
17.8 °C
1013.9 hPa 4.7 km/h
1 Bft
13.0 km/h
3 Bft
SSO -
0.0 mm/h
0.0 231 cm
00:00 Stark bewölkt3 22.6 °C
22.6 °C
76 %
18.0 °C
1013.8 hPa 1.4 km/h
1 Bft
7.9 km/h
2 Bft
SO 0.00 mm
0.0 mm/h
0.0 231 cm
Datenbasis Wetterzustand: ¹ Wetterstation Köln-Nippes (Stellwerk), ² powered by , ³ powered by OpenWeatherMap, CC BY-SA 4.0; Warnlage: DWD, Pegelonline, LANUV; Pegel Köln: Pegelonline
 
Extrem- und Durchschnittswerte
  Temperatur Luftfeuchte Luftdruck Wind Windböen Wind-
richtung
Regen UV-Index Pegel Köln KKT
Min

Max

Ø
22.1 °C
22:52 Uhr
35.1 °C
14:35 Uhr
27.1 °C
32.0 %
14:36 Uhr
84.0 %
22:08 Uhr
51.2 %
1013.8 hPa
23:41 Uhr
1016.7 hPa
00:55 Uhr
1015.6 hPa
 
 
13.0 km/h
15:42 Uhr
3.9 km/h
 
 
22.7 km/h
15:11 Uhr
 
 
 
SO
 
 
 
 
2.61 mm
 
 
 
 
5.7
13:00 Uhr
 
231 cm
23:15 Uhr
248 cm
00:15 Uhr
 
HT TN
NT
  gefühlt Taupunkt   Wind Windböen   Regenrate Ozon Sonne Mond
Min

Max

Ø
22.1 °C
22:52 Uhr
35.1 °C
14:35 Uhr
 
12.4 °C
00:06 Uhr
19.8 °C
22:14 Uhr
15.5 °C
   
 
3 Bft
15:42 Uhr
3.9 km/h
 
 
4 Bft
15:11 Uhr
 
   
 
4.6 mm/h
21:04 Uhr
 
 
Lev.-Manfort
203 μg/m³
15:00 Uhr
 
▲ 06:11 Uhr
▼ 21:04 Uhr
▼ 12:10 Uhr
▲ 23:35 Uhr
KKT = Klimatologischer Kenntag: ET = Eistag, FT = Frosttag, KT = Kalter Tag, ST = Sommertag, HT = Hitzetag, TN = Tropennacht, NT = Niederschlagstag, SH = Schneehöhe (Max Tag); Datenbasis Ozon: LANUV, Land NRW, dl-de/by-2-0
 
Detaillierte Warnlage
STARKE HITZE
08.08.20, 11:00 Uhr bis 09.08.20, 19:00 Uhr
Am Samstag wird eine starke Wärmebelastung erwartet. Am Sonntag wird eine starke Wärmebelastung erwartet. Samstag und Sonntag ist mit einer zusätzlichen Belastung aufgrund verringerter nächtlicher Abkühlung insbesondere im dicht bebauten Stadtgebiet von Köln zu rechnen.
STARKE HITZE
09.08.20, 11:00 Uhr bis 10.08.20, 19:00 Uhr
Am Sonntag wird eine starke Wärmebelastung erwartet. Am Montag wird eine starke Wärmebelastung erwartet. Die Hitze wird alte und pflegebedürftige Menschen extrem belasten. Sonntag und Montag ist mit einer zusätzlichen Belastung aufgrund verringerter nächtlicher Abkühlung insbesondere im dicht bebauten Stadtgebiet von Köln zu rechnen.
STARKES GEWITTER
09.08.20, 19:35 Uhr bis 20:30 Uhr
Es treten Gewitter auf. Dabei gibt es Sturmböen mit Geschwindigkeiten um 75 km/h (21m/s, 41kn, Bft 9) sowie Starkregen mit Niederschlagsmengen bis 25 l/m² pro Stunde und kleinkörnigen Hagel. ACHTUNG! Hinweis auf mögliche Gefahren: Örtlich kann es Blitzschlag geben. Bei Blitzschlag besteht Lebensgefahr! Vereinzelt können beispielsweise Bäume entwurzelt und Dächer beschädigt werden. Achten Sie besonders auf herabstürzende Äste, Dachziegel oder Gegenstände. Während des Platzregens sind kurzzeitig Verkehrsbehinderungen möglich.
STARKES GEWITTER
09.08.20, 20:12 Uhr bis 21:00 Uhr
Es treten Gewitter auf. Dabei gibt es Sturmböen mit Geschwindigkeiten um 75 km/h (21m/s, 41kn, Bft 9) sowie Starkregen mit Niederschlagsmengen bis 25 l/m² pro Stunde und kleinkörnigen Hagel. ACHTUNG! Hinweis auf mögliche Gefahren: Örtlich kann es Blitzschlag geben. Bei Blitzschlag besteht Lebensgefahr! Vereinzelt können beispielsweise Bäume entwurzelt und Dächer beschädigt werden. Achten Sie besonders auf herabstürzende Äste, Dachziegel oder Gegenstände. Während des Platzregens sind kurzzeitig Verkehrsbehinderungen möglich.












09.08.20
SEHR HOHE OZONWERTE
09.08.20

09.08.20

09.08.20

09.08.20

09.08.20
HOHE WALDBRANDGEFAHR
09.08.20
Datenbasis: DWD, Pegelonline, LANUV
Es ist ein Fehler aufgetreten.